< < Back
Terminal Aerodrome Forecast


Current Version              Previous Versions:   1  2  3  4  5  6  7  8  9  

Terminal Aerodrome Forecast

815
FTUS42 KTAE 232300
TAFABY
TAF
KABY 232320Z 2400/2424 VRB04KT P6SM FEW070
     FM240300 00000KT P6SM SKC
      TEMPO 2410/2412 5SM BR
     FM241400 19006KT P6SM SCT060=

Latest METAR

990
SAUS70 KWBC 250000 RRD
MTRABY
METAR KABY 242353Z 20003KT 10SM BKN080 27/15 A2992 RMK AO2 SLP129
T02670150 10294 20267 58007


USA.gov is the U.S. government's official web portal to all federal, state and local government web resources and services.